Location: Cabeza de los Veneras
(40.2000°N, 5.2000°W)
Time: 02:35:34
(UTC+00:00)

CZ-4B R/B - Pass Details

Date: 18 April 2024
Orbit: 465 x 616 km, 97.9° (Epoch: 25 May)

Event Time Altitude Azimuth Distance (km) Brightness Sun altitude
Rises 19:41:35 0° 175° (S) 2,620 6.0 -7.8°
Reaches altitude 10° 19:43:43 10° 180° (S) 1,714 5.1 -8.2°
Maximum altitude 19:47:20 56° 259° (W) 592 3.3 -8.8°
Drops below altitude 10° 19:50:50 10° 338° (NNW) 1,661 6.0 -9.4°
Sets 19:52:54 0° 343° (NNW) 2,530 6.9 -9.8°
